EW6612 Weather Reports


Display with metric or nautical units.
time (UTC)temp
F
wind
direction
speed
MPH
gust
MPH
rain 1hr
in
rain 24hr
in
rain mn
in
humidity
%
barometer
mb
20181112235812 43 71 0.0 0.0 0.00 0.01 0.01 95 1023.5
20181112234759 43 71 0.0 0.0 0.00 0.01 0.01 95 1023.4
20181112233741 43 71 0.0 0.0 0.00 0.01 0.01 95 1023.5
20181112232727 43 71 0.0 0.0 0.00 0.01 0.01 95 1023.5
20181112231707 43 71 0.0 0.0 0.00 0.02 0.01 94 1023.5
20181112230747 44 71 0.0 2.0 0.00 0.02 0.01 95 1023.5
20181112225737 44 71 1.0 4.0 0.00 0.02 0.01 94 1023.5
20181112224716 44 71 1.0 3.0 0.00 0.02 0.01 94 1023.5
20181112223700 44 71 1.0 3.0 0.00 0.02 0.01 94 1023.5
20181112222643 44 309 0.0 0.0 0.00 0.02 0.01 94 1023.4
20181112221726 45 309 0.0 0.0 0.00 0.02 0.01 94 1023.4
20181112220709 45 309 0.0 0.0 0.00 0.02 0.01 94 1023.2
20181112215651 45 309 0.0 0.0 0.00 0.02 0.01 94 1023.1
20181112214628 45 309 0.0 0.0 0.00 0.02 0.01 94 1022.9
20181112213607 46 309 0.0 0.0 0.00 0.02 0.01 94 1022.8
20181112212648 46 309 0.0 0.0 0.00 0.02 0.01 94 1022.7
20181112210601 46 309 0.0 0.0 0.00 0.02 0.01 93 1022.5
20181112205542 47 309 0.0 0.0 0.00 0.02 0.01 93 1022.4
20181112204519 47 309 0.0 1.0 0.00 0.02 0.01 93 1022.3
20181112203503 47 309 0.0 1.0 0.00 0.02 0.01 93 1022.2
20181112202534 48 309 1.0 3.0 0.00 0.02 0.01 93 1022.0
20181112201516 48 309 0.0 2.0 0.00 0.02 0.01 93 1021.8
20181112200449 48 309 0.0 0.0 0.00 0.02 0.01 92 1021.7
20181112195526 49 309 1.0 3.0 0.00 0.02 0.01 92 1021.6
20181112194506 49 309 0.0 2.0 0.00 0.02 0.01 92 1021.5
20181112193442 50 309 0.0 0.0 0.00 0.02 0.01 92 1021.4
20181112192420 50 309 0.0 0.0 0.00 0.02 0.01 91 1021.4
20181112191358 51 309 1.0 3.0 0.00 0.02 0.01 91 1021.2
20181112190437 51 309 2.0 4.0 0.00 0.02 0.01 91 1021.2
20181112185421 51 319 2.0 4.0 0.00 0.02 0.01 90 1021.0
20181112184405 52 323 3.0 4.0 0.00 0.02 0.01 90 1020.9
20181112183353 53 325 2.0 5.0 0.00 0.02 0.01 89 1020.9
20181112182324 53 317 2.0 3.0 0.00 0.02 0.01 88 1020.7
20181112181310 54 317 2.0 4.0 0.00 0.02 0.01 87 1020.5
20181112180356 54 302 3.0 4.0 0.00 0.02 0.01 87 1020.3
20181112175337 55 320 3.0 6.0 0.00 0.02 0.01 87 1020.1
20181112174322 55 313 3.0 5.0 0.00 0.02 0.01 85 1019.9
20181112173247 56 318 3.0 7.0 0.00 0.02 0.01 85 1019.7
20181112172249 56 309 3.0 5.0 0.00 0.02 0.01 83 1019.5
20181112171334 57 318 3.0 5.0 0.00 0.02 0.01 83 1019.6
20181112170315 57 319 4.0 8.0 0.00 0.02 0.01 82 1019.5
20181112165301 58 319 4.0 9.0 0.00 0.02 0.01 81 1019.4
20181112164242 58 333 4.0 9.0 0.00 0.04 0.01 80 1019.2
20181112163334 59 325 5.0 10.0 0.00 0.05 0.01 79 1019.1
20181112162313 59 342 6.0 12.0 0.00 0.06 0.01 77 1019.0
20181112161256 60 314 7.0 15.0 0.00 0.08 0.01 75 1018.7
20181112160230 61 321 6.0 11.0 0.00 0.10 0.01 74 1018.6
20181112155322 62 318 7.0 12.0 0.00 0.13 0.01 74 1018.5
20181112154302 62 339 9.0 13.0 0.00 0.17 0.01 74 1018.4
20181112153243 62 342 6.0 12.0 0.00 0.20 0.01 73 1018.3
20181112152325 62 312 5.0 10.0 0.00 0.23 0.01 74 1018.3
20181112151309 62 13 5.0 9.0 0.00 0.26 0.01 71 1018.3
20181112150256 62 335 4.0 9.0 0.00 0.28 0.01 71 1018.3
20181112145238 63 338 5.0 9.0 0.00 0.31 0.01 69 1018.1
20181112144321 63 0 5.0 11.0 0.00 0.35 0.01 68 1018.0
20181112143303 62 355 6.0 11.0 0.00 0.38 0.01 69 1018.0
20181112142247 62 317 6.0 11.0 0.00 0.39 0.01 70 1018.1
20181112141230 61 344 6.0 10.0 0.00 0.41 0.01 74 1018.1
20181112140315 61 5 5.0 9.0 0.00 0.44 0.01 74 1018.1
20181112135255 62 330 5.0 10.0 0.00 0.47 0.01 74 1018.1
20181112134240 62 351 4.0 11.0 0.00 0.51 0.01 79 1018.0
20181112133224 61 339 6.0 10.0 0.00 0.55 0.01 79 1018.0
20181112132304 62 334 8.0 15.0 0.00 0.57 0.01 75 1018.0
20181112131246 62 323 5.0 10.0 0.00 0.60 0.01 71 1017.9
20181112130228 62 321 5.0 10.0 0.01 0.61 0.01 75 1017.9
20181112125307 62 0 4.0 8.0 0.01 0.61 0.01 76 1017.9
20181112124248 62 329 5.0 11.0 0.01 0.61 0.01 75 1017.9
20181112123235 61 355 4.0 11.0 0.01 0.62 0.01 80 1017.7
20181112122311 61 11 5.0 10.0 0.01 0.62 0.01 80 1017.6
20181112121253 60 355 5.0 10.0 0.01 0.62 0.01 82 1017.6
20181112120239 60 326 3.0 5.0 0.00 0.61 0.00 84 1017.5
20181112115213 60 348 4.0 9.0 0.00 0.62 0.00 85 1017.6
20181112114305 59 316 4.0 8.0 0.00 0.64 0.00 88 1017.7
20181112113244 59 317 4.0 10.0 0.00 0.65 0.00 92 1017.8
20181112112229 58 27 1.0 3.0 0.00 0.67 0.00 94 1017.9
20181112111212 58 331 2.0 5.0 0.00 0.68 0.00 95 1017.8
20181112110255 57 109 2.0 4.0 0.00 0.68 0.00 96 1017.7
20181112105232 57 163 1.0 4.0 0.00 0.69 0.00 96 1017.8
20181112104218 56 225 1.0 3.0 0.00 0.74 0.00 96 1017.5
20181112103157 55 202 1.0 4.0 0.00 0.87 0.00 96 1017.5
20181112102240 55 163 1.0 4.0 0.00 0.87 0.00 97 1017.4
20181112101221 54 127 2.0 4.0 0.00 0.87 0.00 96 1017.2
20181112100204 53 121 0.0 2.0 0.00 0.88 0.00 97 1017.0
20181112095151 52 121 0.0 2.0 0.00 0.88 0.00 97 1016.9
20181112094233 51 121 2.0 5.0 0.00 0.88 0.00 97 1017.2
20181112093214 51 117 3.0 6.0 0.00 0.88 0.00 97 1017.2
20181112092155 50 150 1.0 4.0 0.00 0.88 0.00 97 1017.1
20181112091136 50 209 0.0 2.0 0.00 0.88 0.00 97 1016.9
20181112090219 49 210 0.0 2.0 0.00 0.88 0.00 97 1016.9
20181112085159 47 210 0.0 0.0 0.00 0.88 0.00 97 1016.5
20181112084140 45 207 0.0 2.0 0.00 0.88 0.00 96 1016.6
20181112083119 44 200 0.0 1.0 0.00 0.89 0.00 96 1016.4
20181112082155 44 306 0.0 2.0 0.00 0.90 0.00 96 1016.3
20181112081137 44 306 0.0 2.0 0.00 0.94 0.00 96 1016.1
20181112080117 44 306 1.0 2.0 0.00 0.98 0.00 96 1015.9
20181112075059 44 307 0.0 0.0 0.00 1.00 0.00 96 1015.8
20181112074138 44 307 0.0 0.0 0.00 1.06 0.00 96 1015.8
20181112073123 44 306 0.0 2.0 0.00 1.07 0.00 96 1015.6
20181112072104 44 292 0.0 2.0 0.00 1.09 0.00 96 1015.4
20181112071047 44 292 0.0 0.0 0.00 1.13 0.00 96 1015.4
20181112070035 44 292 0.0 0.0 0.00 1.14 0.00 96 1015.3
20181112065010 45 292 0.0 1.0 0.00 1.16 0.00 96 1015.1
20181112064056 45 292 0.0 2.0 0.00 1.17 0.00 96 1015.1
20181112063040 45 292 0.0 0.0 0.00 1.18 0.00 96 1014.9
20181112062025 46 292 0.0 0.0 0.00 1.19 0.00 96 1014.8
20181112061006 46 292 0.0 0.0 0.00 1.19 0.00 96 1014.6
20181112055942 47 292 0.0 1.0 0.00 1.20 0.00 96 1014.4
20181112054926 47 292 0.0 2.0 0.00 1.22 0.00 96 1014.2
20181112053908 48 292 1.0 2.0 0.00 1.22 0.00 96 1014.1
20181112052950 48 292 2.0 3.0 0.00 1.23 0.00 96 1014.2
20181112051934 48 292 0.0 2.0 0.00 1.23 0.00 96 1014.1
20181112050913 48 292 0.0 0.0 0.00 1.23 0.00 96 1013.8
20181112045951 47 292 0.0 0.0 0.00 1.23 0.00 96 1013.9
20181112044927 47 292 0.0 2.0 0.00 1.23 0.00 96 1013.7
20181112043911 48 292 0.0 0.0 0.00 1.23 0.00 96 1013.6
20181112042850 48 292 0.0 1.0 0.00 1.23 0.00 96 1013.8
20181112041824 47 292 0.0 1.0 0.00 1.24 0.00 96 1013.8
20181112040813 47 292 0.0 1.0 0.00 1.24 0.00 96 1013.7
20181112035851 47 292 0.0 1.0 0.00 1.24 0.00 96 1013.5
20181112034830 46 292 0.0 0.0 0.00 1.25 0.00 96 1013.4
20181112033817 46 292 0.0 1.0 0.00 1.26 0.00 96 1013.2
20181112032726 46 292 1.0 3.0 0.00 1.28 0.00 96 1013.1
20181112031720 47 292 1.0 3.0 0.00 1.28 0.00 96 1013.0
20181112030815 47 292 1.0 2.0 0.00 1.28 0.00 96 1013.3
20181112025718 47 292 0.0 2.0 0.00 1.30 0.00 96 1013.1
20181112024710 47 292 0.0 0.0 0.00 1.31 0.00 96 1013.4
20181112023718 47 292 0.0 0.0 0.00 1.31 0.00 96 1013.2
20181112022749 47 292 0.0 0.0 0.00 1.31 0.00 96 1013.2
20181112021646 48 292 0.0 0.0 0.00 1.34 0.00 96 1013.3
20181112020715 48 292 0.0 0.0 0.00 1.35 0.00 96 1013.4
20181112015652 48 292 0.0 0.0 0.00 1.35 0.00 96 1013.3
20181112014628 48 292 0.0 0.0 0.00 1.36 0.00 96 1013.2
20181112013614 48 292 0.0 0.0 0.00 1.37 0.00 96 1013.2
20181112012600 47 292 0.0 0.0 0.00 1.37 0.00 96 1013.0
20181112011619 47 292 0.0 0.0 0.00 1.37 0.00 96 1013.0
20181112010559 47 292 0.0 0.0 0.00 1.37 0.00 96 1012.8
20181112005542 47 292 0.0 0.0 0.00 1.37 0.00 96 1012.7
20181112004616 47 292 0.0 0.0 0.00 1.37 0.00 96 1012.7
20181112003551 47 292 0.0 0.0 0.00 1.37 0.00 96 1012.6
20181112002528 48 292 0.0 0.0 0.00 1.37 0.00 96 1012.4
20181112001610 48 292 0.0 0.0 0.01 1.37 0.00 96 1012.2